Private Wetterstation Wechselburg
Wetterdaten: Mittwoch, 04.05.2011
Datum Zeit Temp. +2m Bodentemp. Temp.+5cm Temp. Wind Windchill X Diff Temp. Feuchte +2m Feuchte +5cm Sonnenschein Luftdruck Regen Wind Richtung Richtung Sonnenschein UV Taupunkt Windchill Windben
04.05.2011 00:00 4,9 C 13,0 C 3,7 C 3,6 C 0,9 C 0,0 C 77 % 82 % 0 % 1018,4 hPa 0,0 l/m 0,0 km/h (0 Bft) SW 225 0 min 0,0 UV-I 1,2 C 0,9 C 0,0 km/h (0 Bft)
04.05.2011 00:09 4,7 C 13,0 C 3,5 C 3,4 C 0,7 C 0,0 C 77 % 82 % 0 % 1018,4 hPa 0,0 l/m 0,0 km/h (0 Bft) N 0 0 min 0,0 UV-I 1,0 C 0,7 C 0,0 km/h (0 Bft)
04.05.2011 00:15 4,7 C 13,0 C 3,5 C 3,3 C 0,4 C 0,0 C 76 % 82 % 0 % 1018,4 hPa 0,0 l/m 0,0 km/h (0 Bft) S 180 0 min 0,0 UV-I 0,8 C 0,4 C 0,0 km/h (0 Bft)
04.05.2011 00:20 4,7 C 13,0 C 3,4 C 3,2 C 0,2 C 0,0 C 76 % 82 % 0 % 1018,4 hPa 0,0 l/m 0,0 km/h (0 Bft) W 270 0 min 0,0 UV-I 0,8 C 0,2 C 0,0 km/h (0 Bft)
04.05.2011 00:25 4,5 C 12,9 C 3,2 C 3,0 C 0,1 C 0,0 C 76 % 82 % 0 % 1018,4 hPa 0,0 l/m 0,0 km/h (0 Bft) W-SW 247 0 min 0,0 UV-I 0,6 C 0,1 C 0,0 km/h (0 Bft)
04.05.2011 00:30 4,4 C 12,9 C 3,3 C 2,9 C -0,1 C 0,0 C 76 % 82 % 0 % 1018,4 hPa 0,0 l/m 0,0 km/h (0 Bft) O-SO 112 0 min 0,0 UV-I 0,5 C -0,1 C 0,0 km/h (0 Bft)
04.05.2011 00:35 4,3 C 13,0 C 2,9 C 2,8 C -0,1 C 0,0 C 76 % 82 % 0 % 1018,3 hPa 0,0 l/m 0,0 km/h (0 Bft) NO 45 0 min 0,0 UV-I 0,5 C -0,1 C 0,0 km/h (0 Bft)
04.05.2011 00:40 4,1 C 13,0 C 2,8 C 2,7 C -0,2 C 0,0 C 76 % 82 % 0 % 1018,3 hPa 0,0 l/m 0,0 km/h (0 Bft) O-NO 67 0 min 0,0 UV-I 0,3 C -0,2 C 0,0 km/h (0 Bft)
04.05.2011 00:45 3,9 C 13,0 C 2,7 C 2,5 C -0,3 C 0,0 C 76 % 82 % 0 % 1018,3 hPa 0,0 l/m 0,0 km/h (0 Bft) NO 45 0 min 0,0 UV-I 0,1 C -0,3 C 0,0 km/h (0 Bft)
04.05.2011 00:50 4,0 C 13,0 C 2,7 C 2,5 C -0,4 C 0,0 C 77 % 82 % 0 % 1018,3 hPa 0,0 l/m 0,0 km/h (0 Bft) W-SW 247 0 min 0,0 UV-I 0,3 C -0,4 C 0,0 km/h (0 Bft)
04.05.2011 00:55 3,9 C 13,0 C 2,7 C 2,4 C -0,5 C 0,0 C 76 % 82 % 0 % 1018,5 hPa 0,0 l/m 0,0 km/h (0 Bft) O-NO 67 0 min 0,0 UV-I 0,1 C -0,5 C 0,0 km/h (0 Bft)
04.05.2011 01:00 3,7 C 12,9 C 2,5 C 2,3 C -0,4 C 0,0 C 76 % 82 % 0 % 1018,5 hPa 0,0 l/m 0,0 km/h (0 Bft) O-SO 112 0 min 0,0 UV-I -0,1 C -0,4 C 0,0 km/h (0 Bft)
04.05.2011 01:10 3,9 C 12,9 C 2,5 C 2,4 C -0,6 C 0,0 C 76 % 82 % 0 % 1018,5 hPa 0,0 l/m 0,0 km/h (0 Bft) N 0 0 min 0,0 UV-I 0,1 C -0,6 C 0,0 km/h (0 Bft)
04.05.2011 01:15 3,9 C 12,9 C 2,5 C 2,3 C -0,8 C 0,0 C 76 % 82 % 0 % 1018,6 hPa 0,0 l/m 0,0 km/h (0 Bft) O-SO 112 0 min 0,0 UV-I 0,1 C -0,8 C 0,0 km/h (0 Bft)
04.05.2011 01:20 3,7 C 12,9 C 2,5 C 2,1 C -1,0 C 0,0 C 76 % 82 % 0 % 1018,6 hPa 0,0 l/m 0,0 km/h (0 Bft) O-NO 67 0 min 0,0 UV-I -0,1 C -1,0 C 0,0 km/h (0 Bft)
04.05.2011 01:25 3,3 C 12,9 C 2,2 C 1,9 C -0,9 C 0,0 C 76 % 81 % 0 % 1018,6 hPa 0,0 l/m 0,0 km/h (0 Bft) O-NO 67 0 min 0,0 UV-I -0,5 C -0,9 C 0,0 km/h (0 Bft)
04.05.2011 01:30 3,2 C 12,9 C 2,0 C 1,8 C -0,9 C 0,0 C 77 % 82 % 0 % 1018,6 hPa 0,0 l/m 0,0 km/h (0 Bft) O-NO 67 0 min 0,0 UV-I -0,4 C -0,9 C 0,0 km/h (0 Bft)
04.05.2011 01:35 3,1 C 12,9 C 2,1 C 1,7 C -1,1 C 0,0 C 77 % 82 % 0 % 1018,1 hPa 0,0 l/m 0,0 km/h (0 Bft) O-NO 67 0 min 0,0 UV-I -0,5 C -1,1 C 0,0 km/h (0 Bft)
04.05.2011 01:40 3,1 C 12,9 C 2,0 C 1,7 C -1,2 C 0,0 C 78 % 82 % 0 % 1018,1 hPa 0,0 l/m 0,0 km/h (0 Bft) O-NO 67 0 min 0,0 UV-I -0,4 C -1,2 C 0,0 km/h (0 Bft)
04.05.2011 01:45 3,1 C 12,9 C 1,8 C 1,7 C -1,1 C 0,0 C 78 % 82 % 0 % 1018,1 hPa 0,0 l/m 0,0 km/h (0 Bft) O-NO 67 0 min 0,0 UV-I -0,4 C -1,1 C 0,0 km/h (0 Bft)
04.05.2011 01:50 2,9 C 12,9 C 1,9 C 1,6 C -1,1 C 0,0 C 77 % 83 % 0 % 1018,1 hPa 0,0 l/m 0,0 km/h (0 Bft) O-NO 67 0 min 0,0 UV-I -0,7 C -1,1 C 0,0 km/h (0 Bft)
04.05.2011 01:55 2,9 C 12,8 C 1,8 C 1,5 C -1,2 C 0,0 C 78 % 83 % 0 % 1018,4 hPa 0,0 l/m 0,0 km/h (0 Bft) N-NW 337 0 min 0,0 UV-I -0,5 C -1,2 C 0,0 km/h (0 Bft)
04.05.2011 02:00 3,0 C 12,8 C 1,7 C 1,6 C -1,3 C 0,0 C 78 % 83 % 0 % 1018,4 hPa 0,0 l/m 0,0 km/h (0 Bft) N-NW 337 0 min 0,0 UV-I -0,5 C -1,3 C 0,0 km/h (0 Bft)
04.05.2011 02:10 2,7 C 12,8 C 1,6 C 1,3 C -1,5 C 0,0 C 77 % 83 % 0 % 1018,4 hPa 0,0 l/m 0,0 km/h (0 Bft) N 0 0 min 0,0 UV-I -0,9 C -1,5 C 0,0 km/h (0 Bft)
04.05.2011 02:15 2,7 C 12,8 C 1,4 C 1,3 C -1,4 C 0,0 C 78 % 83 % 0 % 1018,4 hPa 0,0 l/m 0,0 km/h (0 Bft) O-NO 67 0 min 0,0 UV-I -0,7 C -1,4 C 0,0 km/h (0 Bft)
04.05.2011 02:20 2,4 C 12,8 C 1,5 C 1,2 C -1,3 C 0,0 C 78 % 83 % 0 % 1018,4 hPa 0,0 l/m 0,0 km/h (0 Bft) O-NO 67 0 min 0,0 UV-I -1,0 C -1,3 C 0,0 km/h (0 Bft)
04.05.2011 02:25 2,7 C 12,7 C 1,5 C 1,3 C -1,5 C 0,0 C 78 % 83 % 0 % 1018,4 hPa 0,0 l/m 0,0 km/h (0 Bft) NO 45 0 min 0,0 UV-I -0,7 C -1,5 C 0,0 km/h (0 Bft)
04.05.2011 02:30 2,7 C 12,7 C 1,4 C 1,3 C -1,6 C 0,0 C 78 % 83 % 0 % 1018,4 hPa 0,0 l/m 0,0 km/h (0 Bft) O-NO 67 0 min 0,0 UV-I -0,7 C -1,6 C 0,0 km/h (0 Bft)
04.05.2011 02:35 2,3 C 12,7 C 1,2 C 1,0 C -1,6 C 0,0 C 78 % 83 % 0 % 1018,3 hPa 0,0 l/m 0,0 km/h (0 Bft) O-NO 67 0 min 0,0 UV-I -1,1 C -1,6 C 0,0 km/h (0 Bft)
04.05.2011 02:40 2,3 C 12,7 C 1,3 C 1,0 C -1,6 C 0,0 C 78 % 83 % 0 % 1018,3 hPa 0,0 l/m 0,0 km/h (0 Bft) O-NO 67 0 min 0,0 UV-I -1,1 C -1,6 C 0,0 km/h (0 Bft)
04.05.2011 02:45 2,3 C 12,7 C 1,2 C 1,0 C -1,7 C 0,0 C 78 % 83 % 0 % 1018,3 hPa 0,0 l/m 0,0 km/h (0 Bft) NO 45 0 min 0,0 UV-I -1,1 C -1,7 C 0,0 km/h (0 Bft)
04.05.2011 02:50 2,3 C 12,6 C 1,3 C 0,9 C -1,8 C 0,0 C 78 % 83 % 0 % 1018,3 hPa 0,0 l/m 0,0 km/h (0 Bft) SO 135 0 min 0,0 UV-I -1,1 C -1,8 C 0,0 km/h (0 Bft)
04.05.2011 02:55 2,4 C 12,7 C 1,2 C 0,9 C -2,0 C 0,0 C 78 % 83 % 0 % 1018,2 hPa 0,0 l/m 0,0 km/h (0 Bft) O-NO 67 0 min 0,0 UV-I -1,0 C -2,0 C 0,0 km/h (0 Bft)
04.05.2011 03:00 2,3 C 12,6 C 1,3 C 0,8 C -2,1 C 0,0 C 78 % 83 % 0 % 1018,2 hPa 0,0 l/m 0,0 km/h (0 Bft) W-SW 247 0 min 0,0 UV-I -1,1 C -2,1 C 0,0 km/h (0 Bft)
04.05.2011 03:10 2,3 C 12,6 C 1,2 C 0,8 C -2,1 C 0,0 C 78 % 83 % 0 % 1018,2 hPa 0,0 l/m 0,0 km/h (0 Bft) N 0 0 min 0,0 UV-I -1,1 C -2,1 C 0,0 km/h (0 Bft)
04.05.2011 03:15 2,0 C 12,6 C 1,1 C 0,6 C -2,1 C 0,0 C 78 % 83 % 0 % 1018,6 hPa 0,0 l/m 0,0 km/h (0 Bft) O-NO 67 0 min 0,0 UV-I -1,4 C -2,1 C 0,0 km/h (0 Bft)
04.05.2011 03:20 2,0 C 12,6 C 1,0 C 0,7 C -2,0 C 0,0 C 79 % 84 % 0 % 1018,6 hPa 0,0 l/m 0,0 km/h (0 Bft) N 360 0 min 0,0 UV-I -1,2 C -2,0 C 0,0 km/h (0 Bft)
04.05.2011 03:25 2,3 C 12,6 C 1,0 C 0,9 C -2,0 C 0,0 C 78 % 84 % 0 % 1018,6 hPa 0,0 l/m 0,0 km/h (0 Bft) NO 45 0 min 0,0 UV-I -1,1 C -2,0 C 0,0 km/h (0 Bft)
04.05.2011 03:30 2,3 C 12,5 C 1,0 C 0,9 C -1,9 C 0,0 C 79 % 84 % 0 % 1018,6 hPa 0,0 l/m 0,0 km/h (0 Bft) O-NO 67 0 min 0,0 UV-I -1,0 C -1,9 C 0,0 km/h (0 Bft)
04.05.2011 03:35 2,3 C 12,5 C 1,1 C 1,0 C -1,5 C 0,0 C 79 % 84 % 0 % 1018,4 hPa 0,0 l/m 0,0 km/h (0 Bft) NO 45 0 min 0,0 UV-I -1,0 C -1,5 C 0,0 km/h (0 Bft)
04.05.2011 03:40 2,4 C 12,4 C 1,3 C 1,1 C -1,4 C 0,0 C 79 % 84 % 0 % 1018,4 hPa 0,0 l/m 0,0 km/h (0 Bft) NO 45 0 min 0,0 UV-I -0,9 C -1,4 C 0,0 km/h (0 Bft)
04.05.2011 03:45 2,7 C 12,4 C 1,3 C 1,5 C -1,0 C 0,0 C 78 % 84 % 0 % 1018,4 hPa 0,0 l/m 0,0 km/h (0 Bft) O 90 0 min 0,0 UV-I -0,7 C -1,0 C 0,0 km/h (0 Bft)
04.05.2011 03:50 2,7 C 12,4 C 1,5 C 1,5 C -0,8 C 0,0 C 78 % 84 % 0 % 1018,4 hPa 0,0 l/m 0,0 km/h (0 Bft) O-SO 112 0 min 0,0 UV-I -0,7 C -0,8 C 0,0 km/h (0 Bft)
04.05.2011 03:55 2,6 C 12,3 C 1,6 C 1,5 C -0,7 C 0,0 C 77 % 83 % 0 % 1018,5 hPa 0,0 l/m 0,0 km/h (0 Bft) O 90 0 min 0,0 UV-I -1,0 C -0,7 C 0,0 km/h (0 Bft)
04.05.2011 04:00 2,7 C 12,3 C 1,7 C 1,6 C -0,6 C 0,0 C 77 % 83 % 0 % 1018,5 hPa 0,0 l/m 0,0 km/h (0 Bft) NO 45 0 min 0,0 UV-I -0,9 C -0,6 C 0,0 km/h (0 Bft)
04.05.2011 04:10 2,8 C 12,3 C 1,7 C 1,6 C -0,7 C 0,0 C 77 % 82 % 0 % 1018,5 hPa 0,0 l/m 0,0 km/h (0 Bft) N 0 0 min 0,0 UV-I -0,8 C -0,7 C 0,0 km/h (0 Bft)
04.05.2011 04:15 2,8 C 12,3 C 1,8 C 1,6 C -0,7 C 0,0 C 77 % 82 % 0 % 1018,4 hPa 0,0 l/m 0,2 km/h (0 Bft) S 180 0 min 0,0 UV-I -0,8 C -0,7 C 2,4 km/h (1 Bft)
04.05.2011 04:20 2,9 C 12,2 C 1,8 C 1,7 C -0,6 C 0,0 C 77 % 82 % 0 % 1018,4 hPa 0,0 l/m 0,2 km/h (0 Bft) S 180 0 min 0,0 UV-I -0,7 C -0,6 C 2,1 km/h (1 Bft)
04.05.2011 04:25 2,9 C 12,2 C 1,9 C 1,8 C -0,4 C 0,0 C 76 % 82 % 0 % 1018,4 hPa 0,0 l/m 0,6 km/h (0 Bft) S-SO 157 0 min 0,0 UV-I -0,9 C -0,4 C 4,0 km/h (1 Bft)
04.05.2011 04:30 3,1 C 12,2 C 2,0 C 2,0 C -0,3 C 0,0 C 76 % 82 % 0 % 1018,4 hPa 0,0 l/m 0,6 km/h (0 Bft) S-SO 157 0 min 0,0 UV-I -0,7 C -0,3 C 0,0 km/h (0 Bft)
04.05.2011 04:35 3,1 C 12,2 C 2,0 C 2,0 C -0,1 C 0,0 C 76 % 82 % 0 % 1018,4 hPa 0,0 l/m 0,6 km/h (0 Bft) S-SO 157 0 min 0,0 UV-I -0,7 C -0,1 C 1,9 km/h (1 Bft)
04.05.2011 04:40 3,1 C 12,2 C 2,0 C 2,1 C 0,0 C 0,0 C 76 % 82 % 0 % 1018,4 hPa 0,0 l/m 1,0 km/h (0 Bft) S-SO 157 0 min 0,0 UV-I -0,7 C 0,0 C 4,3 km/h (1 Bft)
04.05.2011 04:45 3,1 C 12,2 C 2,1 C 2,1 C 0,1 C 0,0 C 76 % 82 % 0 % 1018,4 hPa 0,0 l/m 1,6 km/h (1 Bft) SO 135 0 min 0,0 UV-I -0,7 C 0,1 C 2,6 km/h (1 Bft)
04.05.2011 04:50 3,1 C 12,2 C 2,3 C 2,1 C 0,2 C 0,0 C 76 % 82 % 0 % 1018,4 hPa 0,0 l/m 1,8 km/h (1 Bft) O-SO 112 0 min 0,0 UV-I -0,7 C 0,2 C 1,8 km/h (1 Bft)
04.05.2011 04:55 3,1 C 12,0 C 2,2 C 2,2 C 0,3 C 0,0 C 76 % 81 % 0 % 1018,1 hPa 0,0 l/m 1,1 km/h (1 Bft) O-SO 112 0 min 0,0 UV-I -0,7 C 0,3 C 3,2 km/h (1 Bft)
04.05.2011 05:00 3,1 C 12,0 C 2,3 C 2,2 C 0,4 C 0,0 C 75 % 81 % 0 % 1018,1 hPa 0,0 l/m 1,1 km/h (1 Bft) S-SO 157 0 min 0,0 UV-I -0,9 C 0,4 C 0,0 km/h (0 Bft)
04.05.2011 05:10 3,2 C 12,0 C 2,5 C 2,4 C 0,8 C 0,0 C 76 % 81 % 0 % 1018,1 hPa 0,0 l/m 1,8 km/h (1 Bft) N 0 0 min 0,0 UV-I -0,6 C 0,8 C 3,4 km/h (1 Bft)
04.05.2011 05:15 3,3 C 12,0 C 2,4 C 2,5 C 1,0 C 0,0 C 76 % 81 % 0 % 1018,6 hPa 0,0 l/m 2,3 km/h (1 Bft) S 180 0 min 0,0 UV-I -0,5 C 1,0 C 5,5 km/h (1 Bft)
04.05.2011 05:20 3,3 C 12,0 C 2,5 C 2,6 C 1,1 C 0,0 C 76 % 81 % 0 % 1018,6 hPa 0,0 l/m 2,3 km/h (1 Bft) S-SO 157 0 min 0,0 UV-I -0,5 C 1,1 C 3,9 km/h (1 Bft)
04.05.2011 05:25 3,3 C 12,0 C 2,7 C 2,6 C 1,2 C 0,0 C 75 % 80 % 0 % 1018,6 hPa 0,0 l/m 1,9 km/h (1 Bft) S 180 0 min 0,0 UV-I -0,7 C 1,2 C 2,4 km/h (1 Bft)
04.05.2011 05:30 3,4 C 12,0 C 2,6 C 2,7 C 1,3 C 0,0 C 75 % 80 % 0 % 1018,6 hPa 0,0 l/m 1,8 km/h (1 Bft) S 180 0 min 0,0 UV-I -0,6 C 1,3 C 2,1 km/h (1 Bft)
04.05.2011 05:35 3,5 C 11,9 C 2,7 C 2,8 C 1,4 C 0,0 C 75 % 80 % 0 % 1018,2 hPa 0,0 l/m 1,1 km/h (1 Bft) S-SO 157 0 min 0,0 UV-I -0,5 C 1,4 C 0,0 km/h (0 Bft)
04.05.2011 05:40 3,4 C 11,9 C 2,7 C 2,7 C 1,3 C 0,0 C 75 % 80 % 0 % 1018,2 hPa 0,0 l/m 0,5 km/h (0 Bft) SW 225 0 min 0,0 UV-I -0,6 C 1,3 C 3,9 km/h (1 Bft)
04.05.2011 05:45 3,4 C 11,9 C 2,8 C 2,7 C 1,4 C 0,0 C 75 % 80 % 0 % 1018,2 hPa 0,0 l/m 0,8 km/h (0 Bft) S 180 0 min 0,0 UV-I -0,6 C 1,4 C 2,4 km/h (1 Bft)
04.05.2011 05:50 3,5 C 11,9 C 2,8 C 2,8 C 1,4 C 0,0 C 74 % 80 % 0 % 1018,2 hPa 0,0 l/m 1,1 km/h (1 Bft) S 180 0 min 0,0 UV-I -0,7 C 1,4 C 2,3 km/h (1 Bft)
04.05.2011 05:55 3,5 C 11,9 C 2,9 C 2,8 C 1,4 C 0,0 C 74 % 80 % 0 % 1018,6 hPa 0,0 l/m 0,6 km/h (0 Bft) S-SO 157 0 min 0,0 UV-I -0,7 C 1,4 C 2,7 km/h (1 Bft)
04.05.2011 06:00 3,5 C 11,9 C 2,8 C 2,8 C 1,5 C 0,0 C 74 % 79 % 0 % 1018,6 hPa 0,0 l/m 0,6 km/h (0 Bft) O-NO 67 0 min 0,0 UV-I -0,7 C 1,5 C 0,0 km/h (0 Bft)
04.05.2011 06:10 3,5 C 11,9 C 2,9 C 2,9 C 1,6 C 0,0 C 74 % 79 % 0 % 1018,6 hPa 0,0 l/m 0,0 km/h (0 Bft) N 0 0 min 0,0 UV-I -0,7 C 1,6 C 6,1 km/h (2 Bft)
04.05.2011 06:15 3,5 C 11,9 C 3,0 C 2,9 C 1,7 C 0,0 C 74 % 79 % 0 % 1019,1 hPa 0,0 l/m 0,0 km/h (0 Bft) W-SW 247 0 min 0,0 UV-I -0,7 C 1,7 C 0,0 km/h (0 Bft)
04.05.2011 06:20 3,5 C 11,9 C 3,1 C 2,9 C 1,7 C 0,0 C 74 % 79 % 0 % 1019,1 hPa 0,0 l/m 0,0 km/h (0 Bft) N-NW 337 0 min 0,0 UV-I -0,7 C 1,7 C 0,0 km/h (0 Bft)
04.05.2011 06:25 3,6 C 11,9 C 3,1 C 3,0 C 1,8 C 0,0 C 74 % 79 % 0 % 1019,1 hPa 0,0 l/m 0,0 km/h (0 Bft) NW 315 0 min 0,0 UV-I -0,6 C 1,8 C 0,0 km/h (0 Bft)
04.05.2011 06:30 3,6 C 11,8 C 3,1 C 3,0 C 1,7 C 0,0 C 74 % 79 % 0 % 1019,1 hPa 0,0 l/m 0,0 km/h (0 Bft) O-SO 112 0 min 0,0 UV-I -0,6 C 1,7 C 0,0 km/h (0 Bft)
04.05.2011 06:35 3,7 C 11,8 C 3,0 C 3,0 C 1,7 C 0,0 C 74 % 78 % 0 % 1018,9 hPa 0,0 l/m 0,0 km/h (0 Bft) O-SO 112 0 min 0,0 UV-I -0,5 C 1,7 C 0,0 km/h (0 Bft)
04.05.2011 06:40 3,6 C 11,8 C 3,1 C 3,0 C 1,8 C 0,0 C 74 % 78 % 0 % 1018,9 hPa 0,0 l/m 0,0 km/h (0 Bft) N-NW 337 0 min 0,0 UV-I -0,6 C 1,8 C 0,0 km/h (0 Bft)
04.05.2011 06:45 3,6 C 11,8 C 3,3 C 3,1 C 2,0 C 0,0 C 74 % 78 % 0 % 1018,9 hPa 0,0 l/m 0,0 km/h (0 Bft) S 180 0 min 0,0 UV-I -0,6 C 2,0 C 0,0 km/h (0 Bft)
04.05.2011 06:50 3,7 C 11,8 C 3,3 C 3,1 C 2,0 C 0,0 C 74 % 78 % 0 % 1018,9 hPa 0,0 l/m 0,0 km/h (0 Bft) W-SW 247 0 min 0,0 UV-I -0,5 C 2,0 C 0,0 km/h (0 Bft)
04.05.2011 06:55 3,9 C 11,8 C 3,3 C 3,3 C 2,0 C 0,0 C 74 % 78 % 0 % 1019,1 hPa 0,0 l/m 0,0 km/h (0 Bft) SO 135 0 min 0,0 UV-I -0,3 C 2,0 C 0,0 km/h (0 Bft)
04.05.2011 07:00 3,9 C 11,8 C 3,2 C 3,3 C 2,2 C 0,0 C 73 % 79 % 0 % 1019,1 hPa 0,0 l/m 0,0 km/h (0 Bft) O-NO 67 0 min 0,0 UV-I -0,5 C 2,2 C 0,0 km/h (0 Bft)
04.05.2011 07:10 3,9 C 11,8 C 3,3 C 3,4 C 2,4 C 0,0 C 74 % 79 % 0 % 1019,1 hPa 0,0 l/m 0,0 km/h (0 Bft) N 0 0 min 0,0 UV-I -0,3 C 2,4 C 0,0 km/h (0 Bft)
04.05.2011 07:15 4,0 C 11,8 C 3,5 C 3,5 C 2,5 C 0,0 C 74 % 79 % 0 % 1019,0 hPa 0,0 l/m 0,0 km/h (0 Bft) O-NO 67 0 min 0,0 UV-I -0,2 C 2,5 C 0,0 km/h (0 Bft)
04.05.2011 07:20 4,1 C 11,8 C 3,5 C 3,6 C 2,6 C 0,0 C 74 % 79 % 0 % 1019,0 hPa 0,0 l/m 0,0 km/h (0 Bft) O-NO 67 0 min 0,0 UV-I -0,1 C 2,6 C 0,0 km/h (0 Bft)
04.05.2011 07:25 4,1 C 11,8 C 3,5 C 3,6 C 2,7 C 0,0 C 73 % 78 % 0 % 1019,0 hPa 0,0 l/m 0,0 km/h (0 Bft) O-NO 67 0 min 0,0 UV-I -0,3 C 2,7 C 0,0 km/h (0 Bft)
04.05.2011 07:30 4,3 C 11,8 C 3,5 C 3,8 C 2,9 C 0,0 C 73 % 78 % 0 % 1019,0 hPa 0,0 l/m 0,0 km/h (0 Bft) O-NO 67 0 min 0,0 UV-I -0,1 C 2,9 C 0,0 km/h (0 Bft)
04.05.2011 07:35 4,3 C 11,8 C 3,6 C 3,9 C 3,1 C 0,0 C 73 % 78 % 0 % 1019,1 hPa 0,0 l/m 0,0 km/h (0 Bft) NO 45 0 min 0,1 UV-I -0,1 C 3,1 C 0,0 km/h (0 Bft)
04.05.2011 07:40 4,5 C 11,8 C 3,7 C 4,2 C 3,6 C 0,0 C 73 % 78 % 0 % 1019,1 hPa 0,0 l/m 0,0 km/h (0 Bft) O-NO 67 0 min 0,1 UV-I 0,1 C 3,6 C 0,0 km/h (0 Bft)
04.05.2011 07:45 4,8 C 11,8 C 3,9 C 4,7 C 4,4 C 0,0 C 73 % 78 % 0 % 1019,1 hPa 0,0 l/m 0,0 km/h (0 Bft) O-NO 67 0 min 0,1 UV-I 0,4 C 4,4 C 0,0 km/h (0 Bft)
04.05.2011 07:50 5,7 C 11,7 C 4,0 C 5,7 C 5,7 C 0,0 C 71 % 78 % 0 % 1019,1 hPa 0,0 l/m 0,0 km/h (0 Bft) S-SO 157 0 min 0,1 UV-I 0,9 C 5,7 C 0,0 km/h (0 Bft)
04.05.2011 07:55 5,9 C 11,7 C 4,1 C 8,0 C 8,0 C 2,1 C 70 % 78 % 55 % 1019,1 hPa 0,0 l/m 0,0 km/h (0 Bft) SO 135 0 min 0,1 UV-I 0,9 C 8,0 C 0,0 km/h (0 Bft)
04.05.2011 08:00 6,1 C 11,7 C 4,3 C 9,3 C 9,3 C 3,2 C 69 % 77 % 84 % 1019,1 hPa 0,0 l/m 0,6 km/h (0 Bft) O-SO 112 0 min 0,1 UV-I 0,8 C 9,3 C 4,2 km/h (1 Bft)
04.05.2011 08:10 6,4 C 11,7 C 4,6 C 10,8 C 10,8 C 4,4 C 69 % 77 % 100 % 1019,1 hPa 0,0 l/m 2,6 km/h (1 Bft) N 0 10 min 0,2 UV-I 1,1 C 10,8 C 3,4 km/h (1 Bft)
04.05.2011 08:15 7,4 C 11,7 C 5,0 C 11,0 C 11,0 C 3,6 C 66 % 77 % 95 % 1019,2 hPa 0,0 l/m 3,5 km/h (1 Bft) S-SO 157 5 min 0,2 UV-I 1,5 C 11,0 C 9,0 km/h (2 Bft)
04.05.2011 08:20 7,3 C 11,7 C 5,1 C 11,7 C 11,7 C 4,4 C 66 % 76 % 100 % 1019,2 hPa 0,0 l/m 3,5 km/h (1 Bft) SW 225 5 min 0,2 UV-I 1,4 C 11,7 C 3,7 km/h (1 Bft)
04.05.2011 08:25 8,8 C 11,7 C 5,5 C 11,8 C 11,8 C 3,0 C 64 % 75 % 79 % 1019,2 hPa 0,0 l/m 4,2 km/h (1 Bft) SW 225 0 min 0,3 UV-I 2,4 C 11,8 C 11,7 km/h (2 Bft)
04.05.2011 08:30 9,1 C 11,7 C 5,6 C 11,3 C 11,3 C 2,2 C 62 % 75 % 58 % 1019,2 hPa 0,0 l/m 6,0 km/h (2 Bft) O-NO 67 0 min 0,3 UV-I 2,2 C 11,3 C 6,1 km/h (2 Bft)
04.05.2011 08:35 8,4 C 11,7 C 5,7 C 11,2 C 11,2 C 2,8 C 62 % 74 % 74 % 1019,1 hPa 0,0 l/m 6,3 km/h (2 Bft) S-SW 202 0 min 0,3 UV-I 1,6 C 11,2 C 5,5 km/h (1 Bft)
04.05.2011 08:40 8,0 C 11,7 C 5,8 C 11,2 C 11,2 C 3,2 C 62 % 74 % 84 % 1019,1 hPa 0,0 l/m 6,1 km/h (2 Bft) SW 225 0 min 0,3 UV-I 1,2 C 11,2 C 4,7 km/h (1 Bft)
04.05.2011 08:45 8,0 C 11,7 C 6,1 C 10,9 C 10,9 C 2,9 C 63 % 72 % 76 % 1019,1 hPa 0,0 l/m 6,9 km/h (2 Bft) S-SW 202 0 min 0,4 UV-I 1,4 C 10,9 C 14,2 km/h (3 Bft)
04.05.2011 08:50 8,0 C 11,7 C 6,4 C 11,3 C 11,1 C 3,3 C 62 % 71 % 87 % 1019,1 hPa 0,0 l/m 7,9 km/h (2 Bft) SW 225 5 min 0,4 UV-I 1,2 C 11,1 C 7,1 km/h (2 Bft)
04.05.2011 08:55 8,3 C 11,7 C 6,7 C 12,0 C 12,1 C 3,7 C 62 % 70 % 97 % 1019,1 hPa 0,0 l/m 8,4 km/h (2 Bft) SW 225 5 min 0,5 UV-I 1,5 C 12,1 C 10,3 km/h (2 Bft)
04.05.2011 09:00 8,1 C 11,7 C 6,8 C 11,8 C 11,8 C 3,7 C 62 % 70 % 97 % 1019,1 hPa 0,0 l/m 7,2 km/h (2 Bft) SW 225 5 min 0,5 UV-I 1,3 C 11,8 C 2,3 km/h (1 Bft)
04.05.2011 09:10 8,3 C 11,6 C 7,1 C 10,8 C 10,8 C 2,5 C 62 % 70 % 66 % 1019,1 hPa 0,0 l/m 5,1 km/h (1 Bft) N 0 0 min 0,4 UV-I 1,5 C 10,8 C 9,3 km/h (2 Bft)
04.05.2011 09:15 8,4 C 11,6 C 7,3 C 11,1 C 11,1 C 2,7 C 62 % 69 % 71 % 1019,1 hPa 0,0 l/m 5,3 km/h (1 Bft) SW 225 0 min 0,5 UV-I 1,6 C 11,1 C 7,6 km/h (2 Bft)
04.05.2011 09:20 8,3 C 11,6 C 7,3 C 11,1 C 11,1 C 2,8 C 62 % 68 % 74 % 1019,1 hPa 0,0 l/m 5,1 km/h (1 Bft) W-SW 247 0 min 0,5 UV-I 1,5 C 11,1 C 7,4 km/h (2 Bft)
04.05.2011 09:25 8,4 C 11,6 C 7,5 C 11,0 C 11,0 C 2,6 C 60 % 66 % 68 % 1019,1 hPa 0,0 l/m 5,5 km/h (1 Bft) S-SW 202 0 min 0,6 UV-I 1,1 C 11,0 C 7,2 km/h (2 Bft)
04.05.2011 09:30 8,5 C 11,6 C 7,5 C 10,6 C 10,6 C 2,1 C 60 % 66 % 55 % 1019,1 hPa 0,0 l/m 6,0 km/h (2 Bft) S-SO 157 0 min 0,6 UV-I 1,2 C 10,6 C 10,8 km/h (2 Bft)
04.05.2011 09:35 8,7 C 11,6 C 7,5 C 10,1 C 10,1 C 1,4 C 60 % 65 % 37 % 1019,1 hPa 0,0 l/m 6,9 km/h (2 Bft) SW 225 0 min 0,6 UV-I 1,4 C 10,1 C 10,1 km/h (2 Bft)
04.05.2011 09:40 8,7 C 11,7 C 7,7 C 9,8 C 9,8 C 1,1 C 59 % 65 % 29 % 1019,1 hPa 0,0 l/m 7,6 km/h (2 Bft) S 180 0 min 0,6 UV-I 1,1 C 8,9 C 8,2 km/h (2 Bft)
04.05.2011 09:45 8,7 C 11,7 C 7,7 C 10,0 C 9,6 C 1,3 C 59 % 64 % 34 % 1019,1 hPa 0,0 l/m 8,0 km/h (2 Bft) S-SW 202 0 min 0,7 UV-I 1,1 C 8,5 C 15,6 km/h (3 Bft)
04.05.2011 09:50 8,8 C 11,7 C 7,8 C 9,9 C 9,9 C 1,1 C 59 % 65 % 29 % 1019,1 hPa 0,0 l/m 6,9 km/h (2 Bft) S 180 0 min 0,7 UV-I 1,2 C 9,1 C 4,8 km/h (1 Bft)
04.05.2011 09:55 8,9 C 11,7 C 7,9 C 10,3 C 10,3 C 1,4 C 59 % 64 % 37 % 1019,3 hPa 0,0 l/m 6,3 km/h (2 Bft) S-SW 202 0 min 0,8 UV-I 1,3 C 10,3 C 5,0 km/h (1 Bft)
04.05.2011 10:00 9,1 C 11,7 C 8,1 C 10,5 C 10,5 C 1,4 C 58 % 63 % 37 % 1019,3 hPa 0,0 l/m 7,1 km/h (2 Bft) SW 225 0 min 0,8 UV-I 1,3 C 10,5 C 13,0 km/h (3 Bft)
04.05.2011 10:10 9,5 C 11,7 C 8,4 C 11,1 C 11,1 C 1,6 C 59 % 65 % 42 % 1019,3 hPa 0,0 l/m 6,9 km/h (2 Bft) N 0 0 min 0,8 UV-I 1,9 C 11,1 C 10,1 km/h (2 Bft)
04.05.2011 10:15 9,5 C 11,7 C 8,7 C 11,5 C 11,5 C 2,0 C 58 % 63 % 53 % 1019,3 hPa 0,0 l/m 5,6 km/h (1 Bft) SW 225 0 min 0,8 UV-I 1,7 C 11,5 C 4,2 km/h (1 Bft)
04.05.2011 10:20 9,3 C 11,7 C 8,7 C 11,4 C 11,4 C 2,1 C 57 % 61 % 55 % 1019,3 hPa 0,0 l/m 6,0 km/h (2 Bft) SW 225 0 min 0,8 UV-I 1,2 C 11,4 C 8,4 km/h (2 Bft)
04.05.2011 10:25 9,3 C 11,7 C 8,7 C 11,0 C 11,0 C 1,7 C 56 % 61 % 45 % 1019,3 hPa 0,0 l/m 6,3 km/h (2 Bft) W-SW 247 0 min 0,7 UV-I 1,0 C 11,0 C 11,7 km/h (2 Bft)
04.05.2011 10:30 9,2 C 11,7 C 8,7 C 10,8 C 10,8 C 1,6 C 56 % 61 % 42 % 1019,3 hPa 0,0 l/m 6,1 km/h (2 Bft) S 180 0 min 0,7 UV-I 0,9 C 10,8 C 5,5 km/h (1 Bft)
04.05.2011 10:35 9,2 C 11,7 C 8,6 C 11,3 C 11,3 C 2,1 C 56 % 60 % 55 % 1019,5 hPa 0,0 l/m 4,7 km/h (1 Bft) S-SW 202 0 min 0,7 UV-I 0,9 C 11,3 C 4,5 km/h (1 Bft)
04.05.2011 10:40 9,3 C 11,7 C 8,6 C 11,3 C 11,3 C 2,0 C 55 % 61 % 53 % 1019,5 hPa 0,0 l/m 4,2 km/h (1 Bft) W-NW 292 0 min 0,7 UV-I 0,7 C 11,3 C 9,5 km/h (2 Bft)
04.05.2011 10:45 9,3 C 11,7 C 8,7 C 11,0 C 11,0 C 1,7 C 53 % 57 % 45 % 1019,5 hPa 0,0 l/m 5,5 km/h (1 Bft) S 180 0 min 0,7 UV-I 0,2 C 11,0 C 10,5 km/h (2 Bft)
04.05.2011 10:50 9,2 C 11,7 C 8,5 C 10,8 C 10,8 C 1,6 C 53 % 58 % 42 % 1019,5 hPa 0,0 l/m 5,8 km/h (2 Bft) W-SW 247 0 min 0,7 UV-I 0,1 C 10,8 C 6,4 km/h (2 Bft)
04.05.2011 10:55 9,3 C 11,7 C 8,6 C 10,6 C 10,6 C 1,3 C 54 % 59 % 34 % 1019,5 hPa 0,0 l/m 6,1 km/h (2 Bft) W-SW 247 0 min 0,8 UV-I 0,5 C 10,6 C 11,9 km/h (2 Bft)
04.05.2011 11:00 9,3 C 11,7 C 8,6 C 10,6 C 10,6 C 1,3 C 54 % 58 % 34 % 1019,5 hPa 0,0 l/m 6,1 km/h (2 Bft) SW 225 0 min 0,8 UV-I 0,5 C 10,6 C 7,2 km/h (2 Bft)
04.05.2011 11:10 9,5 C 11,8 C 8,7 C 10,6 C 10,6 C 1,1 C 53 % 58 % 29 % 1019,5 hPa 0,0 l/m 7,1 km/h (2 Bft) N 0 0 min 0,9 UV-I 0,4 C 10,6 C 11,9 km/h (2 Bft)
04.05.2011 11:15 9,5 C 11,8 C 8,9 C 10,7 C 10,3 C 1,2 C 52 % 57 % 32 % 1019,6 hPa 0,0 l/m 8,2 km/h (2 Bft) SW 225 0 min 1,0 UV-I 0,1 C 10,3 C 8,7 km/h (2 Bft)
04.05.2011 11:20 9,6 C 11,8 C 8,9 C 10,7 C 10,6 C 1,1 C 52 % 57 % 29 % 1019,6 hPa 0,0 l/m 7,7 km/h (2 Bft) SW 225 0 min 1,0 UV-I 0,2 C 10,6 C 11,6 km/h (2 Bft)
04.05.2011 11:25 9,7 C 11,8 C 9,0 C 11,3 C 11,3 C 1,6 C 51 % 56 % 42 % 1019,6 hPa 0,0 l/m 6,1 km/h (2 Bft) SW 225 0 min 1,1 UV-I 0,1 C 11,3 C 6,4 km/h (2 Bft)
04.05.2011 11:30 9,9 C 11,8 C 9,1 C 11,6 C 11,6 C 1,7 C 52 % 57 % 45 % 1019,6 hPa 0,0 l/m 5,6 km/h (1 Bft) W 270 0 min 1,1 UV-I 0,5 C 11,6 C 9,0 km/h (2 Bft)
04.05.2011 11:35 9,9 C 11,8 C 9,1 C 11,6 C 11,6 C 1,7 C 52 % 57 % 45 % 1019,6 hPa 0,0 l/m 6,0 km/h (2 Bft) SW 225 0 min 1,1 UV-I 0,5 C 11,6 C 8,2 km/h (2 Bft)
04.05.2011 11:40 9,7 C 11,8 C 9,1 C 11,6 C 11,6 C 1,9 C 52 % 57 % 50 % 1019,6 hPa 0,0 l/m 5,8 km/h (2 Bft) S 180 0 min 1,1 UV-I 0,3 C 11,6 C 5,0 km/h (1 Bft)
04.05.2011 11:45 10,1 C 11,9 C 9,1 C 11,8 C 11,8 C 1,7 C 52 % 57 % 45 % 1019,6 hPa 0,0 l/m 5,6 km/h (1 Bft) SW 225 0 min 1,3 UV-I 0,7 C 11,8 C 12,7 km/h (3 Bft)
04.05.2011 11:50 10,3 C 11,9 C 9,1 C 12,6 C 12,6 C 2,3 C 51 % 57 % 61 % 1019,6 hPa 0,0 l/m 6,0 km/h (2 Bft) S 180 0 min 1,3 UV-I 0,6 C 12,6 C 8,9 km/h (2 Bft)
04.05.2011 11:55 10,4 C 11,9 C 9,8 C 12,7 C 12,7 C 2,3 C 52 % 56 % 61 % 1019,6 hPa 0,0 l/m 7,1 km/h (2 Bft) S-SW 202 0 min 1,4 UV-I 1,0 C 12,7 C 6,4 km/h (2 Bft)
04.05.2011 12:00 10,5 C 11,9 C 10,1 C 13,0 C 13,0 C 2,5 C 50 % 54 % 66 % 1019,6 hPa 0,0 l/m 6,8 km/h (2 Bft) S 180 0 min 1,4 UV-I 0,5 C 13,0 C 7,2 km/h (2 Bft)
04.05.2011 12:10 10,6 C 11,9 C 10,3 C 13,7 C 13,7 C 3,1 C 50 % 54 % 82 % 1019,6 hPa 0,0 l/m 5,0 km/h (1 Bft) N 0 0 min 1,3 UV-I 0,6 C 13,7 C 7,2 km/h (2 Bft)
04.05.2011 12:15 10,7 C 11,9 C 10,2 C 13,5 C 13,5 C 2,8 C 50 % 54 % 74 % 1019,7 hPa 0,0 l/m 4,8 km/h (1 Bft) W-SW 247 0 min 1,0 UV-I 0,7 C 13,5 C 7,9 km/h (2 Bft)
04.05.2011 12:20 10,7 C 11,9 C 10,3 C 12,9 C 12,9 C 2,2 C 50 % 54 % 58 % 1019,7 hPa 0,0 l/m 6,3 km/h (2 Bft) SW 225 0 min 1,0 UV-I 0,7 C 12,9 C 9,7 km/h (2 Bft)
04.05.2011 12:25 10,8 C 11,9 C 10,4 C 13,1 C 13,1 C 2,3 C 50 % 54 % 61 % 1019,7 hPa 0,0 l/m 6,4 km/h (2 Bft) S 180 0 min 1,4 UV-I 0,8 C 13,1 C 6,6 km/h (2 Bft)
04.05.2011 12:30 10,8 C 12,0 C 10,4 C 13,1 C 13,1 C 2,3 C 49 % 52 % 61 % 1019,7 hPa 0,0 l/m 6,4 km/h (2 Bft) S-SW 202 0 min 1,4 UV-I 0,5 C 13,1 C 8,4 km/h (2 Bft)
04.05.2011 12:35 10,9 C 12,0 C 10,5 C 13,5 C 13,5 C 2,6 C 49 % 54 % 68 % 1019,7 hPa 0,0 l/m 6,0 km/h (2 Bft) S-SW 202 0 min 1,9 UV-I 0,6 C 13,5 C 4,3 km/h (1 Bft)
04.05.2011 12:40 11,2 C 12,0 C 10,6 C 14,1 C 14,1 C 2,9 C 49 % 54 % 76 % 1019,7 hPa 0,0 l/m 6,4 km/h (2 Bft) W-SW 247 0 min 1,9 UV-I 0,9 C 14,1 C 16,6 km/h (3 Bft)
04.05.2011 12:45 11,2 C 11,9 C 10,8 C 13,7 C 13,3 C 2,5 C 49 % 53 % 66 % 1019,7 hPa 0,0 l/m 8,0 km/h (2 Bft) S-SW 202 0 min 1,7 UV-I 0,9 C 13,3 C 10,0 km/h (2 Bft)
04.05.2011 12:50 11,3 C 11,9 C 10,9 C 13,3 C 13,3 C 2,0 C 47 % 51 % 53 % 1019,7 hPa 0,0 l/m 8,9 km/h (2 Bft) W-SW 247 0 min 1,7 UV-I 0,4 C 13,3 C 14,0 km/h (3 Bft)
04.05.2011 12:55 11,3 C 12,0 C 10,8 C 13,2 C 12,9 C 1,9 C 46 % 49 % 50 % 1019,4 hPa 0,0 l/m 8,5 km/h (2 Bft) W-SW 247 0 min 1,4 UV-I 0,1 C 12,9 C 10,3 km/h (2 Bft)
04.05.2011 13:00 11,3 C 12,0 C 10,7 C 12,7 C 12,3 C 1,4 C 46 % 49 % 37 % 1019,4 hPa 0,0 l/m 9,2 km/h (2 Bft) S 180 0 min 1,4 UV-I 0,1 C 12,3 C 15,4 km/h (3 Bft)
04.05.2011 13:10 11,2 C 12,1 C 10,8 C 12,9 C 12,9 C 1,7 C 47 % 51 % 45 % 1019,4 hPa 0,0 l/m 8,4 km/h (2 Bft) N 0 0 min 1,7 UV-I 0,3 C 12,9 C 17,9 km/h (3 Bft)
04.05.2011 13:15 11,1 C 12,1 C 10,7 C 12,6 C 12,6 C 1,5 C 47 % 50 % 39 % 1019,3 hPa 0,0 l/m 6,4 km/h (2 Bft) SW 225 0 min 0,6 UV-I 0,2 C 12,6 C 14,3 km/h (3 Bft)
04.05.2011 13:20 10,9 C 12,1 C 10,4 C 11,7 C 11,7 C 0,8 C 47 % 50 % 21 % 1019,3 hPa 0,0 l/m 7,4 km/h (2 Bft) W-SW 247 0 min 0,6 UV-I 0,0 C 11,7 C 9,0 km/h (2 Bft)
04.05.2011 13:25 10,9 C 12,1 C 10,3 C 11,3 C 11,3 C 0,4 C 49 % 52 % 11 % 1019,3 hPa 0,0 l/m 6,8 km/h (2 Bft) SW 225 0 min 0,4 UV-I 0,6 C 11,3 C 5,8 km/h (2 Bft)
04.05.2011 13:30 10,8 C 12,1 C 10,3 C 11,5 C 11,5 C 0,7 C 50 % 54 % 18 % 1019,3 hPa 0,0 l/m 5,3 km/h (1 Bft) S 180 0 min 0,4 UV-I 0,8 C 11,5 C 5,8 km/h (2 Bft)
04.05.2011 13:35 10,7 C 12,1 C 10,3 C 11,2 C 11,2 C 0,5 C 50 % 54 % 13 % 1019,3 hPa 0,0 l/m 5,8 km/h (2 Bft) N-NW 337 0 min 0,7 UV-I 0,7 C 11,2 C 13,2 km/h (3 Bft)
04.05.2011 13:40 10,7 C 12,1 C 10,3 C 11,6 C 11,6 C 0,9 C 51 % 55 % 24 % 1019,3 hPa 0,0 l/m 5,1 km/h (1 Bft) S 180 0 min 0,7 UV-I 1,0 C 11,6 C 5,0 km/h (1 Bft)
04.05.2011 13:45 10,7 C 12,1 C 10,2 C 11,6 C 11,6 C 0,9 C 52 % 55 % 24 % 1019,3 hPa 0,0 l/m 4,8 km/h (1 Bft) S 180 0 min 0,5 UV-I 1,3 C 11,6 C 10,0 km/h (2 Bft)
04.05.2011 13:50 10,7 C 12,1 C 10,0 C 11,2 C 11,2 C 0,5 C 52 % 55 % 13 % 1019,3 hPa 0,0 l/m 5,6 km/h (1 Bft) S-SW 202 0 min 0,5 UV-I 1,3 C 11,2 C 6,6 km/h (2 Bft)
04.05.2011 13:55 10,4 C 12,1 C 9,9 C 11,1 C 11,1 C 0,7 C 53 % 56 % 18 % 1019,8 hPa 0,0 l/m 5,3 km/h (1 Bft) S-SW 202 0 min 0,6 UV-I 1,2 C 11,1 C 5,6 km/h (1 Bft)
04.05.2011 14:00 10,4 C 12,1 C 9,9 C 11,2 C 11,2 C 0,8 C 53 % 57 % 21 % 1019,8 hPa 0,0 l/m 4,7 km/h (1 Bft) W-SW 247 0 min 0,6 UV-I 1,2 C 11,2 C 7,2 km/h (2 Bft)
04.05.2011 14:10 10,7 C 12,2 C 9,9 C 11,2 C 11,2 C 0,5 C 53 % 57 % 13 % 1019,8 hPa 0,0 l/m 4,8 km/h (1 Bft) N 0 0 min 0,5 UV-I 1,5 C 11,2 C 8,2 km/h (2 Bft)
04.05.2011 14:15 10,9 C 12,2 C 10,5 C 12,0 C 12,0 C 1,1 C 51 % 55 % 29 % 1019,6 hPa 0,0 l/m 4,7 km/h (1 Bft) S 180 0 min 1,5 UV-I 1,2 C 12,0 C 5,1 km/h (1 Bft)
04.05.2011 14:20 11,1 C 12,2 C 10,9 C 12,8 C 12,8 C 1,7 C 50 % 55 % 45 % 1019,6 hPa 0,0 l/m 4,5 km/h (1 Bft) SW 225 0 min 1,5 UV-I 1,1 C 12,8 C 0,0 km/h (0 Bft)
04.05.2011 14:25 11,7 C 12,2 C 12,8 C 14,7 C 14,7 C 3,0 C 48 % 50 % 79 % 1019,6 hPa 0,0 l/m 5,0 km/h (1 Bft) W-SW 247 0 min 2,4 UV-I 1,1 C 14,7 C 15,6 km/h (3 Bft)
04.05.2011 14:30 11,7 C 12,2 C 12,8 C 15,1 C 15,1 C 3,4 C 48 % 48 % 89 % 1019,6 hPa 0,0 l/m 6,3 km/h (2 Bft) S 180 5 min 2,4 UV-I 1,1 C 15,1 C 6,1 km/h (2 Bft)
04.05.2011 14:35 11,4 C 12,3 C 12,0 C 14,1 C 13,3 C 2,7 C 48 % 49 % 71 % 1019,5 hPa 0,0 l/m 9,0 km/h (2 Bft) W-SW 247 0 min 1,1 UV-I 0,8 C 13,3 C 23,3 km/h (4 Bft)
04.05.2011 14:40 11,3 C 12,3 C 11,6 C 13,1 C 12,8 C 1,8 C 49 % 51 % 47 % 1019,5 hPa 0,0 l/m 8,2 km/h (2 Bft) S-SW 202 0 min 1,1 UV-I 1,0 C 12,8 C 11,6 km/h (2 Bft)
04.05.2011 14:45 11,3 C 12,3 C 11,2 C 12,4 C 12,4 C 1,1 C 49 % 51 % 29 % 1019,5 hPa 0,0 l/m 7,2 km/h (2 Bft) S-SW 202 0 min 0,8 UV-I 1,0 C 12,4 C 12,1 km/h (2 Bft)
04.05.2011 14:50 11,5 C 12,3 C 11,5 C 12,5 C 12,5 C 1,0 C 49 % 52 % 26 % 1019,5 hPa 0,0 l/m 6,6 km/h (2 Bft) N-NO 22 0 min 0,8 UV-I 1,2 C 12,5 C 6,8 km/h (2 Bft)
04.05.2011 14:55 11,4 C 12,3 C 11,5 C 12,9 C 12,9 C 1,5 C 49 % 51 % 39 % 1019,4 hPa 0,0 l/m 6,0 km/h (2 Bft) S-SO 157 0 min 1,1 UV-I 1,1 C 12,9 C 6,8 km/h (2 Bft)
04.05.2011 15:00 11,5 C 12,3 C 11,5 C 12,8 C 12,8 C 1,3 C 49 % 52 % 34 % 1019,4 hPa 0,0 l/m 6,3 km/h (2 Bft) S 180 0 min 1,1 UV-I 1,2 C 12,8 C 7,1 km/h (2 Bft)
04.05.2011 15:10 11,6 C 12,3 C 12,0 C 13,0 C 13,0 C 1,4 C 49 % 51 % 37 % 1019,4 hPa 0,0 l/m 6,6 km/h (2 Bft) N 0 0 min 1,1 UV-I 1,3 C 13,0 C 17,5 km/h (3 Bft)
04.05.2011 15:15 11,9 C 12,4 C 12,3 C 13,4 C 13,4 C 1,5 C 48 % 50 % 39 % 1019,6 hPa 0,0 l/m 8,2 km/h (2 Bft) W-SW 247 0 min 1,1 UV-I 1,2 C 13,4 C 6,8 km/h (2 Bft)
04.05.2011 15:20 11,7 C 12,4 C 11,9 C 13,4 C 13,2 C 1,7 C 49 % 51 % 45 % 1019,6 hPa 0,0 l/m 8,0 km/h (2 Bft) S 180 0 min 1,1 UV-I 1,3 C 13,2 C 7,1 km/h (2 Bft)
04.05.2011 15:25 11,9 C 12,4 C 11,9 C 13,1 C 13,1 C 1,2 C 50 % 52 % 32 % 1019,6 hPa 0,0 l/m 7,1 km/h (2 Bft) S 180 0 min 0,9 UV-I 1,8 C 13,1 C 6,6 km/h (2 Bft)
04.05.2011 15:30 11,8 C 12,4 C 12,0 C 13,3 C 13,3 C 1,5 C 50 % 51 % 39 % 1019,6 hPa 0,0 l/m 7,7 km/h (2 Bft) SW 225 0 min 0,9 UV-I 1,7 C 13,3 C 4,8 km/h (1 Bft)
04.05.2011 15:35 11,9 C 12,4 C 11,6 C 13,4 C 13,4 C 1,5 C 50 % 53 % 39 % 1019,8 hPa 0,0 l/m 7,1 km/h (2 Bft) S-SW 202 0 min 0,9 UV-I 1,8 C 13,4 C 10,0 km/h (2 Bft)
04.05.2011 15:40 11,7 C 12,4 C 11,4 C 13,4 C 13,4 C 1,7 C 51 % 54 % 45 % 1019,8 hPa 0,0 l/m 5,6 km/h (1 Bft) S 180 0 min 0,9 UV-I 1,9 C 13,4 C 3,7 km/h (1 Bft)
04.05.2011 15:45 11,4 C 12,4 C 11,1 C 12,5 C 12,5 C 1,1 C 53 % 57 % 29 % 1019,8 hPa 0,0 l/m 6,3 km/h (2 Bft) SW 225 0 min 0,3 UV-I 2,2 C 12,5 C 10,0 km/h (2 Bft)
04.05.2011 15:50 11,3 C 12,4 C 10,6 C 11,3 C 11,3 C 0,0 C 55 % 59 % 0 % 1019,8 hPa 0,0 l/m 6,6 km/h (2 Bft) S-SW 202 0 min 0,3 UV-I 2,6 C 11,3 C 8,9 km/h (2 Bft)
04.05.2011 15:55 11,1 C 12,5 C 10,4 C 11,0 C 10,8 C 0,0 C 57 % 61 % 0 % 1020,1 hPa 0,0 l/m 6,3 km/h (2 Bft) NW 315 0 min 0,3 UV-I 2,9 C 10,8 C 6,9 km/h (2 Bft)
04.05.2011 16:00 10,9 C 12,5 C 10,3 C 10,7 C 10,2 C 0,0 C 58 % 62 % 0 % 1020,1 hPa 0,0 l/m 6,4 km/h (2 Bft) S-SW 202 0 min 0,3 UV-I 3,0 C 10,2 C 8,9 km/h (2 Bft)
04.05.2011 16:10 10,5 C 12,5 C 9,9 C 10,3 C 8,9 C 0,0 C 58 % 62 % 0 % 1020,1 hPa 0,0 l/m 9,7 km/h (2 Bft) N 0 0 min 0,3 UV-I 2,6 C 7,4 C 12,7 km/h (3 Bft)
04.05.2011 16:15 10,4 C 12,6 C 9,4 C 10,0 C 8,7 C 0,0 C 59 % 64 % 0 % 1020,3 hPa 0,0 l/m 9,8 km/h (2 Bft) S-SW 202 0 min 0,3 UV-I 2,7 C 7,1 C 19,0 km/h (3 Bft)
04.05.2011 16:20 10,2 C 12,6 C 9,3 C 9,8 C 8,4 C 0,0 C 60 % 65 % 0 % 1020,3 hPa 0,0 l/m 10,0 km/h (2 Bft) SW 225 0 min 0,3 UV-I 2,8 C 6,7 C 12,7 km/h (3 Bft)
04.05.2011 16:25 10,3 C 12,6 C 9,2 C 9,8 C 8,3 C 0,0 C 61 % 66 % 0 % 1020,3 hPa 0,0 l/m 9,5 km/h (2 Bft) S-SW 202 0 min 0,3 UV-I 3,1 C 6,7 C 6,0 km/h (2 Bft)
04.05.2011 16:30 10,3 C 12,6 C 9,2 C 9,8 C 8,7 C 0,0 C 61 % 66 % 0 % 1020,3 hPa 0,0 l/m 8,0 km/h (2 Bft) W-SW 247 0 min 0,3 UV-I 3,1 C 7,5 C 5,8 km/h (2 Bft)
04.05.2011 16:35 10,2 C 12,6 C 9,1 C 9,8 C 9,0 C 0,0 C 61 % 67 % 0 % 1020,1 hPa 0,0 l/m 7,4 km/h (2 Bft) W-SW 247 0 min 0,4 UV-I 3,0 C 8,0 C 8,0 km/h (2 Bft)
04.05.2011 16:40 10,4 C 12,6 C 9,1 C 10,1 C 9,5 C 0,0 C 61 % 67 % 0 % 1020,1 hPa 0,0 l/m 6,8 km/h (2 Bft) W-SW 247 0 min 0,4 UV-I 3,2 C 8,7 C 6,1 km/h (2 Bft)
04.05.2011 16:45 10,7 C 12,6 C 10,0 C 11,4 C 11,4 C 0,7 C 59 % 66 % 18 % 1020,1 hPa 0,0 l/m 4,7 km/h (1 Bft) S-SO 157 0 min 0,6 UV-I 3,0 C 11,4 C 7,7 km/h (2 Bft)
04.05.2011 16:50 10,7 C 12,6 C 10,0 C 11,5 C 11,5 C 0,8 C 59 % 65 % 21 % 1020,1 hPa 0,0 l/m 5,3 km/h (1 Bft) S 180 0 min 0,6 UV-I 3,0 C 11,5 C 7,2 km/h (2 Bft)
04.05.2011 16:55 11,4 C 12,6 C 11,3 C 12,6 C 12,6 C 1,2 C 58 % 63 % 32 % 1020,1 hPa 0,0 l/m 5,6 km/h (1 Bft) W-SW 247 0 min 0,5 UV-I 3,4 C 12,6 C 6,3 km/h (2 Bft)
04.05.2011 17:00 11,7 C 12,6 C 11,9 C 13,9 C 13,9 C 2,2 C 57 % 60 % 58 % 1020,1 hPa 0,0 l/m 5,1 km/h (1 Bft) SW 225 0 min 0,5 UV-I 3,5 C 13,9 C 8,0 km/h (2 Bft)
04.05.2011 17:10 12,1 C 12,6 C 12,4 C 14,3 C 14,3 C 2,2 C 56 % 59 % 58 % 1020,1 hPa 0,0 l/m 6,0 km/h (2 Bft) N 0 0 min 0,5 UV-I 3,6 C 14,3 C 8,0 km/h (2 Bft)
04.05.2011 17:15 12,5 C 12,6 C 12,6 C 14,6 C 14,6 C 2,1 C 55 % 57 % 55 % 1020,1 hPa 0,0 l/m 6,1 km/h (2 Bft) SW 225 0 min 0,5 UV-I 3,7 C 14,6 C 7,6 km/h (2 Bft)
04.05.2011 17:20 12,2 C 12,6 C 12,3 C 14,4 C 14,4 C 2,2 C 55 % 58 % 58 % 1020,1 hPa 0,0 l/m 6,3 km/h (2 Bft) SW 225 0 min 0,5 UV-I 3,4 C 14,4 C 6,8 km/h (2 Bft)
04.05.2011 17:25 12,0 C 12,6 C 12,0 C 13,5 C 13,5 C 1,5 C 56 % 59 % 39 % 1020,1 hPa 0,0 l/m 5,5 km/h (1 Bft) S 180 0 min 0,4 UV-I 3,5 C 13,5 C 6,4 km/h (2 Bft)
04.05.2011 17:30 12,1 C 12,6 C 12,1 C 13,2 C 13,2 C 1,1 C 56 % 59 % 29 % 1020,1 hPa 0,0 l/m 4,7 km/h (1 Bft) S 180 0 min 0,4 UV-I 3,6 C 13,2 C 7,6 km/h (2 Bft)
04.05.2011 17:35 12,3 C 12,7 C 12,3 C 14,1 C 14,1 C 1,8 C 56 % 59 % 47 % 1020,0 hPa 0,0 l/m 5,0 km/h (1 Bft) SW 225 0 min 0,4 UV-I 3,8 C 14,1 C 8,2 km/h (2 Bft)
04.05.2011 17:40 12,3 C 12,7 C 12,3 C 13,8 C 13,8 C 1,5 C 56 % 59 % 39 % 1020,0 hPa 0,0 l/m 5,1 km/h (1 Bft) W-SW 247 0 min 0,4 UV-I 3,8 C 13,8 C 3,1 km/h (1 Bft)
04.05.2011 17:45 12,0 C 12,7 C 12,0 C 13,5 C 13,5 C 1,5 C 56 % 59 % 39 % 1020,0 hPa 0,0 l/m 5,6 km/h (1 Bft) O 90 0 min 0,2 UV-I 3,5 C 13,5 C 8,7 km/h (2 Bft)
04.05.2011 17:50 11,9 C 12,7 C 11,6 C 12,6 C 12,6 C 0,7 C 57 % 59 % 18 % 1020,0 hPa 0,0 l/m 6,0 km/h (2 Bft) W-SW 247 0 min 0,2 UV-I 3,7 C 12,6 C 5,8 km/h (2 Bft)
04.05.2011 17:55 11,7 C 12,7 C 11,1 C 11,6 C 11,4 C 0,0 C 56 % 59 % 0 % 1020,1 hPa 0,0 l/m 6,3 km/h (2 Bft) S 180 0 min 0,1 UV-I 3,2 C 11,4 C 6,9 km/h (2 Bft)
04.05.2011 18:00 11,5 C 12,7 C 10,8 C 11,4 C 11,2 C 0,0 C 57 % 60 % 0 % 1020,1 hPa 0,0 l/m 5,5 km/h (1 Bft) W-SW 247 0 min 0,1 UV-I 3,3 C 11,2 C 3,7 km/h (1 Bft)
04.05.2011 18:10 11,2 C 12,7 C 10,7 C 11,1 C 11,0 C 0,0 C 57 % 61 % 0 % 1020,1 hPa 0,0 l/m 3,9 km/h (1 Bft) N 0 0 min 0,1 UV-I 3,0 C 11,0 C 7,9 km/h (2 Bft)
04.05.2011 18:15 11,1 C 12,7 C 10,4 C 11,0 C 10,7 C 0,0 C 58 % 63 % 0 % 1020,3 hPa 0,0 l/m 4,0 km/h (1 Bft) S-SW 202 0 min 0,0 UV-I 3,2 C 10,7 C 9,8 km/h (2 Bft)
04.05.2011 18:20 11,1 C 12,7 C 10,4 C 10,8 C 10,2 C 0,0 C 59 % 63 % 0 % 1020,3 hPa 0,0 l/m 5,0 km/h (1 Bft) SW 225 0 min 0,0 UV-I 3,4 C 10,2 C 8,7 km/h (2 Bft)
04.05.2011 18:25 10,9 C 12,8 C 10,1 C 10,5 C 9,8 C 0,0 C 59 % 64 % 0 % 1020,3 hPa 0,0 l/m 5,1 km/h (1 Bft) S 180 0 min 0,0 UV-I 3,2 C 9,5 C 5,3 km/h (1 Bft)
04.05.2011 18:30 10,8 C 12,8 C 10,1 C 10,4 C 9,7 C 0,0 C 60 % 65 % 0 % 1020,3 hPa 0,0 l/m 5,0 km/h (1 Bft) SW 225 0 min 0,0 UV-I 3,4 C 9,4 C 7,7 km/h (2 Bft)
04.05.2011 18:35 10,6 C 12,9 C 9,9 C 10,1 C 9,2 C 0,0 C 62 % 67 % 0 % 1020,7 hPa 0,0 l/m 6,4 km/h (2 Bft) SW 225 0 min 0,0 UV-I 3,6 C 8,4 C 7,6 km/h (2 Bft)
04.05.2011 18:40 10,5 C 12,9 C 9,7 C 9,9 C 8,8 C 0,0 C 63 % 67 % 0 % 1020,7 hPa 0,0 l/m 7,1 km/h (2 Bft) S 180 0 min 0,0 UV-I 3,8 C 7,8 C 9,7 km/h (2 Bft)
04.05.2011 18:45 10,3 C 12,9 C 9,4 C 9,7 C 8,6 C 0,0 C 63 % 68 % 0 % 1020,7 hPa 0,0 l/m 5,8 km/h (2 Bft) S-SW 202 0 min 0,0 UV-I 3,6 C 7,9 C 8,5 km/h (2 Bft)
04.05.2011 18:50 10,1 C 12,9 C 9,2 C 9,4 C 8,1 C 0,0 C 63 % 68 % 0 % 1020,7 hPa 0,0 l/m 6,8 km/h (2 Bft) S 180 0 min 0,0 UV-I 3,4 C 7,1 C 12,1 km/h (2 Bft)
04.05.2011 18:55 10,1 C 12,9 C 8,9 C 9,4 C 7,3 C 0,0 C 64 % 69 % 0 % 1020,9 hPa 0,0 l/m 8,2 km/h (2 Bft) S-SW 202 0 min 0,0 UV-I 3,6 C 5,8 C 8,4 km/h (2 Bft)
04.05.2011 19:00 9,9 C 12,9 C 8,8 C 9,0 C 7,3 C 0,0 C 64 % 69 % 0 % 1020,9 hPa 0,0 l/m 7,2 km/h (2 Bft) S 180 0 min 0,0 UV-I 3,4 C 6,0 C 3,4 km/h (1 Bft)
04.05.2011 19:10 9,8 C 12,9 C 8,9 C 9,3 C 8,3 C 0,0 C 65 % 70 % 0 % 1020,9 hPa 0,0 l/m 3,7 km/h (1 Bft) N 0 0 min 0,0 UV-I 3,5 C 8,3 C 4,0 km/h (1 Bft)
04.05.2011 19:15 9,7 C 12,9 C 8,8 C 9,2 C 8,3 C 0,0 C 65 % 71 % 0 % 1020,8 hPa 0,0 l/m 3,7 km/h (1 Bft) SW 225 0 min 0,0 UV-I 3,4 C 8,3 C 6,3 km/h (2 Bft)
04.05.2011 19:20 9,6 C 12,9 C 8,6 C 9,1 C 8,2 C 0,0 C 65 % 71 % 0 % 1020,8 hPa 0,0 l/m 3,5 km/h (1 Bft) SW 225 0 min 0,0 UV-I 3,4 C 8,2 C 5,5 km/h (1 Bft)
04.05.2011 19:25 9,7 C 12,9 C 8,5 C 9,1 C 8,0 C 0,0 C 66 % 71 % 0 % 1020,8 hPa 0,0 l/m 4,2 km/h (1 Bft) W 270 0 min 0,0 UV-I 3,7 C 8,0 C 3,4 km/h (1 Bft)
04.05.2011 19:30 9,6 C 12,9 C 8,5 C 9,0 C 7,8 C 0,0 C 66 % 72 % 0 % 1020,8 hPa 0,0 l/m 4,7 km/h (1 Bft) S 180 0 min 0,0 UV-I 3,6 C 7,4 C 6,3 km/h (2 Bft)
04.05.2011 19:35 9,6 C 12,9 C 8,5 C 9,0 C 7,7 C 0,0 C 66 % 72 % 0 % 1021,1 hPa 0,0 l/m 4,5 km/h (1 Bft) S-SO 157 0 min 0,0 UV-I 3,6 C 7,7 C 5,1 km/h (1 Bft)
04.05.2011 19:40 9,5 C 12,9 C 8,4 C 8,9 C 7,7 C 0,0 C 67 % 72 % 0 % 1021,1 hPa 0,0 l/m 4,2 km/h (1 Bft) SW 225 0 min 0,0 UV-I 3,7 C 7,7 C 3,1 km/h (1 Bft)
04.05.2011 19:45 9,5 C 12,9 C 8,2 C 8,8 C 7,3 C 0,0 C 67 % 73 % 0 % 1021,1 hPa 0,0 l/m 4,7 km/h (1 Bft) S-SW 202 0 min 0,0 UV-I 3,7 C 6,8 C 7,9 km/h (2 Bft)
04.05.2011 19:50 9,3 C 12,9 C 8,1 C 8,6 C 7,3 C 0,0 C 68 % 73 % 0 % 1021,1 hPa 0,0 l/m 4,5 km/h (1 Bft) SW 225 0 min 0,0 UV-I 3,7 C 7,3 C 7,2 km/h (2 Bft)
04.05.2011 19:55 9,2 C 12,9 C 8,0 C 8,5 C 7,1 C 0,0 C 68 % 74 % 0 % 1021,4 hPa 0,0 l/m 4,5 km/h (1 Bft) S 180 0 min 0,0 UV-I 3,6 C 7,1 C 4,5 km/h (1 Bft)
04.05.2011 20:00 9,2 C 12,9 C 8,1 C 8,5 C 7,2 C 0,0 C 68 % 74 % 0 % 1021,4 hPa 0,0 l/m 3,9 km/h (1 Bft) W-SW 247 0 min 0,0 UV-I 3,6 C 7,2 C 0,0 km/h (0 Bft)
04.05.2011 20:10 9,3 C 12,9 C 7,9 C 8,7 C 7,6 C 0,0 C 68 % 74 % 0 % 1021,4 hPa 0,0 l/m 2,9 km/h (1 Bft) N 0 0 min 0,0 UV-I 3,7 C 7,6 C 3,2 km/h (1 Bft)
04.05.2011 20:15 9,3 C 12,9 C 7,9 C 8,8 C 7,8 C 0,0 C 68 % 74 % 0 % 1021,2 hPa 0,0 l/m 2,9 km/h (1 Bft) S-SO 157 0 min 0,0 UV-I 3,7 C 7,8 C 2,7 km/h (1 Bft)
04.05.2011 20:20 9,2 C 12,9 C 8,0 C 8,7 C 7,7 C 0,0 C 68 % 75 % 0 % 1021,2 hPa 0,0 l/m 2,3 km/h (1 Bft) W-SW 247 0 min 0,0 UV-I 3,6 C 7,7 C 4,3 km/h (1 Bft)
04.05.2011 20:25 9,0 C 12,9 C 7,9 C 8,5 C 7,4 C 0,0 C 69 % 75 % 0 % 1021,2 hPa 0,0 l/m 1,3 km/h (1 Bft) O-NO 67 0 min 0,0 UV-I 3,6 C 7,4 C 0,0 km/h (0 Bft)
04.05.2011 20:30 8,9 C 12,9 C 7,8 C 8,3 C 7,0 C 0,0 C 69 % 75 % 0 % 1021,2 hPa 0,0 l/m 0,8 km/h (0 Bft) O-NO 67 0 min 0,0 UV-I 3,5 C 7,0 C 0,0 km/h (0 Bft)
04.05.2011 20:35 8,7 C 12,9 C 7,7 C 7,9 C 6,4 C 0,0 C 70 % 75 % 0 % 1021,4 hPa 0,0 l/m 0,2 km/h (0 Bft) O-NO 67 0 min 0,0 UV-I 3,5 C 6,4 C 0,0 km/h (0 Bft)
04.05.2011 20:40 8,7 C 12,9 C 7,6 C 7,8 C 6,0 C 0,0 C 70 % 75 % 0 % 1021,4 hPa 0,0 l/m 0,3 km/h (0 Bft) SO 135 0 min 0,0 UV-I 3,5 C 6,0 C 1,8 km/h (1 Bft)
04.05.2011 20:45 8,5 C 12,9 C 7,3 C 7,5 C 5,6 C 0,0 C 71 % 76 % 0 % 1021,4 hPa 0,0 l/m 0,2 km/h (0 Bft) SW 225 0 min 0,0 UV-I 3,5 C 5,6 C 0,0 km/h (0 Bft)
04.05.2011 20:50 8,4 C 12,9 C 7,3 C 7,4 C 5,4 C 0,0 C 71 % 76 % 0 % 1021,4 hPa 0,0 l/m 0,3 km/h (0 Bft) SW 225 0 min 0,0 UV-I 3,5 C 5,4 C 0,0 km/h (0 Bft)
04.05.2011 20:55 8,3 C 12,9 C 7,1 C 7,2 C 5,1 C 0,0 C 72 % 76 % 0 % 1021,7 hPa 0,0 l/m 0,2 km/h (0 Bft) S-SO 157 0 min 0,0 UV-I 3,6 C 5,1 C 0,0 km/h (0 Bft)
04.05.2011 21:00 8,2 C 12,9 C 7,0 C 7,2 C 5,1 C 0,0 C 72 % 77 % 0 % 1021,7 hPa 0,0 l/m 0,0 km/h (0 Bft) S-SO 157 0 min 0,0 UV-I 3,5 C 5,1 C 0,0 km/h (0 Bft)
04.05.2011 21:10 8,0 C 12,9 C 6,6 C 6,9 C 4,8 C 0,0 C 73 % 78 % 0 % 1021,7 hPa 0,0 l/m 0,0 km/h (0 Bft) N 0 0 min 0,0 UV-I 3,5 C 4,8 C 0,0 km/h (0 Bft)
04.05.2011 21:15 7,9 C 12,9 C 6,5 C 6,8 C 4,6 C 0,0 C 73 % 78 % 0 % 1021,9 hPa 0,0 l/m 0,0 km/h (0 Bft) S-SO 157 0 min 0,0 UV-I 3,4 C 4,6 C 0,0 km/h (0 Bft)
04.05.2011 21:20 7,9 C 12,9 C 6,5 C 6,8 C 4,5 C 0,0 C 73 % 79 % 0 % 1021,9 hPa 0,0 l/m 0,0 km/h (0 Bft) SO 135 0 min 0,0 UV-I 3,4 C 4,5 C 0,0 km/h (0 Bft)
04.05.2011 21:25 7,9 C 12,9 C 6,5 C 6,8 C 4,6 C 0,0 C 74 % 79 % 0 % 1021,9 hPa 0,0 l/m 0,0 km/h (0 Bft) O-SO 112 0 min 0,0 UV-I 3,6 C 4,6 C 0,0 km/h (0 Bft)
04.05.2011 21:30 7,7 C 12,9 C 6,5 C 6,6 C 4,5 C 0,0 C 74 % 79 % 0 % 1021,9 hPa 0,0 l/m 0,0 km/h (0 Bft) S-SO 157 0 min 0,0 UV-I 3,4 C 4,5 C 0,0 km/h (0 Bft)
04.05.2011 21:35 7,7 C 13,1 C 6,4 C 6,6 C 4,3 C 0,0 C 75 % 80 % 0 % 1022,5 hPa 0,0 l/m 0,0 km/h (0 Bft) S-SO 157 0 min 0,0 UV-I 3,6 C 4,3 C 2,7 km/h (1 Bft)
04.05.2011 21:40 7,6 C 13,1 C 6,4 C 6,5 C 4,3 C 0,0 C 75 % 80 % 0 % 1022,5 hPa 0,0 l/m 0,3 km/h (0 Bft) SO 135 0 min 0,0 UV-I 3,5 C 4,3 C 2,3 km/h (1 Bft)
04.05.2011 21:45 7,6 C 13,0 C 6,4 C 6,5 C 4,3 C 0,0 C 76 % 80 % 0 % 1022,5 hPa 0,0 l/m 0,3 km/h (0 Bft) S-SW 202 0 min 0,0 UV-I 3,6 C 4,3 C 0,0 km/h (0 Bft)
04.05.2011 21:50 7,5 C 13,0 C 6,3 C 6,4 C 4,3 C 0,0 C 76 % 81 % 0 % 1022,5 hPa 0,0 l/m 0,3 km/h (0 Bft) SW 225 0 min 0,0 UV-I 3,5 C 4,3 C 0,0 km/h (0 Bft)
04.05.2011 21:55 7,4 C 13,1 C 6,2 C 6,3 C 4,0 C 0,0 C 76 % 81 % 0 % 1022,5 hPa 0,0 l/m 0,2 km/h (0 Bft) SW 225 0 min 0,0 UV-I 3,5 C 4,0 C 0,0 km/h (0 Bft)
04.05.2011 22:00 7,3 C 13,1 C 6,1 C 6,1 C 3,8 C 0,0 C 76 % 81 % 0 % 1022,5 hPa 0,0 l/m 0,0 km/h (0 Bft) O-NO 67 0 min 0,0 UV-I 3,4 C 3,8 C 0,0 km/h (0 Bft)
04.05.2011 22:10 6,8 C 13,2 C 5,7 C 5,7 C 3,4 C 0,0 C 77 % 82 % 0 % 1022,5 hPa 0,0 l/m 0,0 km/h (0 Bft) N 0 0 min 0,0 UV-I 3,1 C 3,4 C 0,0 km/h (0 Bft)
04.05.2011 22:15 6,7 C 13,1 C 5,6 C 5,5 C 3,2 C 0,0 C 77 % 82 % 0 % 1022,6 hPa 0,0 l/m 0,0 km/h (0 Bft) NO 45 0 min 0,0 UV-I 3,0 C 3,2 C 0,0 km/h (0 Bft)
04.05.2011 22:20 6,7 C 13,1 C 5,5 C 5,5 C 3,1 C 0,0 C 77 % 82 % 0 % 1022,6 hPa 0,0 l/m 0,0 km/h (0 Bft) NO 45 0 min 0,0 UV-I 3,0 C 3,1 C 0,0 km/h (0 Bft)
04.05.2011 22:25 6,7 C 13,1 C 5,5 C 5,4 C 2,8 C 0,0 C 78 % 82 % 0 % 1022,6 hPa 0,0 l/m 0,0 km/h (0 Bft) S-SO 157 0 min 0,0 UV-I 3,1 C 2,8 C 0,0 km/h (0 Bft)
04.05.2011 22:30 6,7 C 13,1 C 5,4 C 5,4 C 2,7 C 0,0 C 78 % 82 % 0 % 1022,6 hPa 0,0 l/m 0,0 km/h (0 Bft) S 180 0 min 0,0 UV-I 3,1 C 2,7 C 0,0 km/h (0 Bft)
04.05.2011 22:35 6,6 C 13,1 C 5,3 C 5,3 C 2,6 C 0,0 C 78 % 82 % 0 % 1022,5 hPa 0,0 l/m 0,0 km/h (0 Bft) SW 225 0 min 0,0 UV-I 3,0 C 2,6 C 0,0 km/h (0 Bft)
04.05.2011 22:40 6,6 C 13,0 C 5,2 C 5,3 C 2,6 C 0,0 C 78 % 82 % 0 % 1022,5 hPa 0,0 l/m 0,0 km/h (0 Bft) W 270 0 min 0,0 UV-I 3,0 C 2,6 C 0,0 km/h (0 Bft)
04.05.2011 22:45 6,5 C 13,1 C 5,2 C 5,2 C 2,5 C 0,0 C 77 % 83 % 0 % 1022,5 hPa 0,0 l/m 0,0 km/h (0 Bft) SW 225 0 min 0,0 UV-I 2,8 C 2,5 C 0,0 km/h (0 Bft)
04.05.2011 22:50 6,4 C 13,1 C 5,1 C 5,1 C 2,4 C 0,0 C 78 % 83 % 0 % 1022,5 hPa 0,0 l/m 0,0 km/h (0 Bft) O-NO 67 0 min 0,0 UV-I 2,8 C 2,4 C 0,0 km/h (0 Bft)
04.05.2011 22:55 6,3 C 13,0 C 5,0 C 5,0 C 2,4 C 0,0 C 78 % 83 % 0 % 1022,8 hPa 0,0 l/m 0,0 km/h (0 Bft) O-NO 67 0 min 0,0 UV-I 2,8 C 2,4 C 0,0 km/h (0 Bft)
04.05.2011 23:00 6,3 C 13,0 C 4,9 C 4,9 C 2,2 C 0,0 C 78 % 83 % 0 % 1022,8 hPa 0,0 l/m 0,0 km/h (0 Bft) O-NO 67 0 min 0,0 UV-I 2,8 C 2,2 C 0,0 km/h (0 Bft)
04.05.2011 23:10 6,0 C 13,1 C 4,8 C 4,6 C 1,9 C 0,0 C 78 % 83 % 0 % 1022,8 hPa 0,0 l/m 0,0 km/h (0 Bft) N 0 0 min 0,0 UV-I 2,5 C 1,9 C 0,0 km/h (0 Bft)
04.05.2011 23:15 6,0 C 13,1 C 4,8 C 4,6 C 1,8 C 0,0 C 78 % 83 % 0 % 1023,1 hPa 0,0 l/m 0,0 km/h (0 Bft) S-SW 202 0 min 0,0 UV-I 2,5 C 1,8 C 0,0 km/h (0 Bft)
04.05.2011 23:20 6,0 C 13,2 C 4,7 C 4,6 C 1,8 C 0,0 C 78 % 83 % 0 % 1023,1 hPa 0,0 l/m 0,0 km/h (0 Bft) S-SO 157 0 min 0,0 UV-I 2,5 C 1,8 C 0,0 km/h (0 Bft)
04.05.2011 23:25 5,9 C 13,2 C 4,5 C 4,6 C 2,0 C 0,0 C 78 % 83 % 0 % 1023,1 hPa 0,0 l/m 0,0 km/h (0 Bft) O-SO 112 0 min 0,0 UV-I 2,4 C 2,0 C 0,0 km/h (0 Bft)
04.05.2011 23:30 5,7 C 13,2 C 4,4 C 4,5 C 2,0 C 0,0 C 79 % 84 % 0 % 1023,1 hPa 0,0 l/m 0,0 km/h (0 Bft) O-SO 112 0 min 0,0 UV-I 2,3 C 2,0 C 0,0 km/h (0 Bft)
04.05.2011 23:35 5,6 C 13,2 C 4,4 C 4,4 C 1,9 C 0,0 C 79 % 84 % 0 % 1023,1 hPa 0,0 l/m 0,0 km/h (0 Bft) O-SO 112 0 min 0,0 UV-I 2,3 C 1,9 C 0,0 km/h (0 Bft)
04.05.2011 23:40 5,6 C 13,1 C 4,4 C 4,3 C 1,8 C 0,0 C 80 % 84 % 0 % 1023,1 hPa 0,0 l/m 0,0 km/h (0 Bft) W-SW 247 0 min 0,0 UV-I 2,4 C 1,8 C 0,0 km/h (0 Bft)
04.05.2011 23:45 5,6 C 13,1 C 4,4 C 4,4 C 1,9 C 0,0 C 80 % 85 % 0 % 1023,1 hPa 0,0 l/m 0,0 km/h (0 Bft) SW 225 0 min 0,0 UV-I 2,4 C 1,9 C 0,0 km/h (0 Bft)
04.05.2011 23:50 5,7 C 13,2 C 4,4 C 4,4 C 1,9 C 0,0 C 80 % 85 % 0 % 1023,1 hPa 0,0 l/m 0,0 km/h (0 Bft) SO 135 0 min 0,0 UV-I 2,5 C 1,9 C 0,0 km/h (0 Bft)
04.05.2011 23:55 5,6 C 13,1 C 4,3 C 4,4 C 2,0 C 0,0 C 80 % 85 % 0 % 1023,2 hPa 0,0 l/m 0,0 km/h (0 Bft) SO 135 0 min 0,0 UV-I 2,4 C 2,0 C 0,0 km/h (0 Bft)
_ Min-Zeit 03:15 09:10 03:20 03:15 03:00 00:00 12:55 14:30 00:00 01:35 - 00:00 - - - 00:00 03:15 03:00 00:00
Minimum _ 2,0 C 11,6 C 1,0 C 0,6 C -2,1 C 0,0 C 46 % 48 % 0 % 1018,1 hPa - 0,0 km/h (0 Bft) - - - 0,0 UV-I -1,4 C -2,1 C 0,0 km/h (0 Bft)
_ Max-Zeit 17:15 22:10 14:25 14:30 14:30 08:10 23:40 23:45 08:10 23:55 00:00 16:20 - - 08:10 14:25 17:35 14:30 14:35
Maximum _ 12,5 C 13,2 C 12,8 C 15,1 C 15,1 C 4,4 C 80 % 85 % 100 % 1023,2 hPa 0,0 l/m 10,0 km/h
SW (2 Bft)
- - 10 min 2,4 UV-I 3,8 C 15,1 C 23,3 km/h
W-SW (4 Bft)
Durchschnitt _ 7,5 C 12,4 C 6,6 C 7,6 C 6,4 C 0,7 C 66 % 71 % 19 % 1019,8 hPa #0,0 l/m 3,2 km/h (1 Bft) SW - #40 min. 0,7 UV-I 1,3 C 6,3 C 4,5 km/h (1 Bft)
2013 www.wetterstation-wechselburg.de